Delhi, LA (71232)

9:03 AM CDT on July 23, 2016 (GMT -0500)
Ruff. Rd. | | Change Station
Active Advisory: Heat Advisory Active Notice: Public Information Statement

Elev 85 ft 32.57 °N, 91.64 °W | Updated 13 seconds ago

Clear
Clear
82.6 °F
Feels Like 93 °F
N
2.5
Wind Variable Wind from SE
Gusts 2.5 mph

Today
High -- | Low -- °F
--% Chance of Precip.
Yesterday
High -- | Low -- °F
Precip. -- in
Pressure 30.04 in
Visibility 10.0 miles
Clouds Clear
Heat Index 93 °F
Dew Point 79 °F
Humidity 88%
Rainfall 0.00 in
Snow Depth Not available.
6:15 AM 8:09 PM
Waning Gibbous, 85% visible
METAR KTVR 231353Z AUTO 16003KT 10SM CLR 27/24 A3002 RMK AO2 SLP171 T02720244
Pressure 30.04 in
Visibility 10.0 miles
Clouds Clear
Heat Index 93 °F
Dew Point 79 °F
Humidity 88%
Rainfall 0.00 in
Snow Depth Not available.
6:15 AM 8:09 PM
Waning Gibbous, 85% visible
METAR KTVR 231353Z AUTO 16003KT 10SM CLR 27/24 A3002 RMK AO2 SLP171 T02720244

10-Day Weather Forecast

Almanac

Astronomy

Jul. 23, 2016 Rise Set
Actual Time
Civil Twilight
Nautical Twilight
Astronomical Twilight
Moon
Length of Visible Light
Length of Day
Tomorrow will be .
, % of the Moon is Illuminated

Today's Extremes

State Highs State Lows

Community

WunderPhotos

Upload Photos

1,926,821 photos uploaded!

WunderBlog® & News

Nearby

Air Quality

  Air Quality AQ Index Pollutant
Not available.

Snow Depth

Station Depth Elevation

Earthquake Activity

City Distance Mag. Time & Date
Minimum magnitude displayed is 2.5.

Coastal Water Temperatures

Place Temperature

Stations

Nearby Weather Stations

Station Location Temp. Windchill Dew Point Humidity Wind Precip. Elev Updated Type
                   

Watches & Warnings

Heat Advisory
Issued: 4:35 AM CDT Jul. 23, 2016 – National Weather Service

... Heat advisory remains in effect until 7 PM CDT this evening...

* temperature... highs in the middle to upper 90s combined with
high humidity levels will result in heat index readings from
105 to 110 degrees.

* Impacts... heat stress will reach dangerous levels and could
lead to heat exhaustion or heat stroke for those working
outdoors.

Precautionary/preparedness actions...

Take extra precautions... if you work or spend time outside. When
possible... reschedule strenuous activities to early morning or
evening. Know the signs and symptoms of heat exhaustion and heat
stroke. Wear light weight and loose fitting clothing when
possible and drink plenty of water.